Regional Weather Roundup
Issued by NWS

Home | Current Version | Previous Version | Text Only | Print | Product List | Glossary Off
Versions: 1 2 3 4 5 6 7 8 9 10 11 12 13 14 15 16 17 18 19 20 21 22 23 24 25 26 27 28 29 30 31 32 33 34 35 36 37 38 39 40 41 42 43 44 45 46 47 48 49 50

000
ASUS44 KMEG 292110
RWRTN
TENNESSEE HOURLY STATE WEATHER ROUNDUP
NATIONAL WEATHER SERVICE MEMPHIS TN
400 PM CDT SAT AUG 29 2015

TNZ002-004-019-021-049-052-054-088>092-292200-
WEST TENNESSEE

CITY           SKY/WX    TMP DP  RH WIND       PRES   REMARKS
MEMPHIS INTL   FAIR      93  61  34 SW9       30.00F HX  93
NWS MEMPHIS      N/A     91 N/A N/A MISG        N/A
JACKSON        FAIR      90  64  42 W6        30.01F HX  91
DYERSBURG      FAIR     N/A N/A N/A MISG        N/A
UNION CITY     SUNNY     90  68  48 S5        30.00F HX  93
PARIS          SUNNY     90  61  37 VRB5      30.02F
LEXINGTON      SUNNY     90  63  40 VRB5      30.03F HX  90
$$

TNZ008-025-027-028-033-062-065-066-292200-
NORTH MIDDLE TENNESSEE

CITY           SKY/WX    TMP DP  RH WIND       PRES   REMARKS
NASHVILLE      PTSUNNY   81  69  67 SW5       30.07F
CLARKSVILLE    LGT RAIN  90  61  37 MISG      30.03F HX  90
SMYRNA         FAIR      79  72  79 S8        30.09F
COOKEVILLE     SUNNY     88  72  58 S8        30.08F HX  94
CROSSVILLE     FAIR      79  65  62 S6        30.16F
$$

TNZ061-075-076-078-094-096-097-292200-
SOUTH MIDDLE TENNESSEE

CITY           SKY/WX    TMP DP  RH WIND       PRES   REMARKS
FAYETTEVILLE     N/A     70  68  94 CALM      30.13R
TULLAHOMA      MOSUNNY   72  66  83 W5        30.12F
WINCHESTER     PTSUNNY   73  70  88 NW7       30.13R
MCMINNVILLE    MOSUNNY   84  68  58 SW8       30.10R
COLUMBIA       SUNNY     77  73  88 SE5       30.07S
SHELBYVILLE    SUNNY     73  72  94 S8        30.10F
$$

TNZ017-018-042-046-047-292200-
NORTHEAST TENNESSEE

CITY           SKY/WX    TMP DP  RH WIND       PRES   REMARKS
TRI CITIES     CLOUDY    80  63  55 CALM      30.17F
ELIZABETHTON   CLEAR     77  66  69 CALM      30.17F
$$

TNZ012-013-036-069-073-074-292200-
CENTRAL EAST TENNESSEE

CITY           SKY/WX    TMP DP  RH WIND       PRES   REMARKS
KNOXVILLE      PTSUNNY   89  71  55 VRB3      30.11F HX  95
OAK RIDGE      FAIR      86  63  45 CALM      30.13F
GATLINBURG     PTCLDY    84  59  42 E7        30.12S
MORRISTOWN     CLEAR     82  64  54 SE5       30.15F
$$

TNZ083-085-099-292200-
SOUTHEAST TENNESSEE

CITY           SKY/WX    TMP DP  RH WIND       PRES   REMARKS
CHATTANOOGA    PTSUNNY   84  66  54 SE8       30.10F
$$

SKY/WX REPORTED AS FAIR MEANS FEW OR NO CLOUDS BELOW
12 THOUSAND FEET.




USA.gov is the U.S. government's official web portal to all federal, state and local government web resources and services.